Location: Olsztyn
(53.7767°N, 20.4765°E)
Time: 14:08:47
(UTC+02:00)

Altair - All Passes

Search period start: 19 July 2024 00:00
Search period end: 29 July 2024 00:00
Orbit: 1502 x 1682 km, 47.2° (Epoch: 18 July)

Date Brightness Start Highest point End Pass type
(mag) Time Alt. Az. Time Alt. Az. Time Alt. Az.
19 Jul - 00:23:02 10° W 00:31:23 41° SSW 00:39:48 10° SE visible
19 Jul - 02:28:42 10° W 02:34:03 17° SW 02:39:26 10° SSW visible
19 Jul - 17:49:05 10° S 17:55:52 23° SE 18:02:33 10° E daylight
19 Jul - 19:50:08 10° SW 19:58:51 47° SSE 20:07:28 10° E daylight
19 Jul - 21:53:39 10° WSW 22:02:38 59° S 22:11:34 10° ESE visible
19 Jul - 23:57:51 10° W 00:06:17 43° SSW 00:14:46 10° SE visible
20 Jul - 02:03:16 10° W 02:09:02 19° SW 02:14:51 10° S visible
20 Jul - 17:24:19 10° S 17:30:50 21° SE 17:37:14 10° E daylight
20 Jul - 19:25:04 10° SW 19:33:45 46° SSE 19:42:18 10° E daylight
20 Jul - 21:28:30 10° WSW 21:37:28 59° S 21:46:25 10° ESE visible
20 Jul - 23:32:40 10° W 23:41:11 45° SSW 23:49:44 10° SE visible
21 Jul - 01:37:54 10° W 01:44:01 20° SW 01:50:11 10° S visible
21 Jul - 16:59:37 10° S 17:05:48 20° SE 17:11:53 10° E daylight
21 Jul - 19:00:00 10° SW 19:08:38 44° SSE 19:17:08 10° E daylight
21 Jul - 21:03:20 10° WSW 21:12:20 59° S 21:21:16 10° ESE daylight
21 Jul - 23:07:29 10° W 23:16:04 46° SSW 23:24:41 10° SE visible
22 Jul - 01:12:32 10° W 01:18:59 22° SW 01:25:28 10° S visible
22 Jul - 16:34:57 10° S 16:40:46 18° SE 16:46:30 10° E daylight
22 Jul - 18:34:56 10° SW 18:43:32 42° SSE 18:51:57 10° E daylight
22 Jul - 20:38:10 10° WSW 20:47:12 59° S 20:56:07 10° ESE daylight
22 Jul - 22:42:18 10° W 22:50:58 48° SSW 22:59:37 10° SE visible
23 Jul - 00:47:14 10° W 00:53:56 23° SW 01:00:42 10° S visible
23 Jul - 16:10:21 10° SSE 16:15:45 17° SE 16:21:04 10° E daylight
23 Jul - 18:09:55 10° SW 18:18:26 41° SSE 18:26:47 10° E daylight
23 Jul - 20:13:01 10° WSW 20:22:03 58° S 20:30:58 10° E daylight
23 Jul - 22:17:07 10° W 22:25:51 50° SSW 22:34:32 10° SE visible
24 Jul - 00:21:55 10° W 00:28:54 25° SW 00:35:55 10° S visible
24 Jul - 15:45:50 10° SSE 15:50:44 15° SE 15:55:34 10° E daylight
24 Jul - 17:44:53 10° SW 17:53:20 39° SSE 18:01:36 10° E daylight
24 Jul - 19:47:52 10° WSW 19:56:55 58° S 20:05:49 10° E daylight
24 Jul - 21:51:56 10° W 22:00:44 51° SSW 22:09:28 10° SE visible
24 Jul - 23:56:39 10° W 00:03:51 27° SW 00:11:06 10° SSE visible
25 Jul - 15:21:26 10° SSE 15:25:43 14° SE 15:29:58 10° E daylight
25 Jul - 17:19:52 10° SSW 17:28:14 37° SSE 17:36:25 10° E daylight
25 Jul - 19:22:42 10° WSW 19:31:46 57° S 19:40:40 10° E daylight
25 Jul - 21:26:45 10° W 21:35:36 52° SSW 21:44:22 10° ESE visible
25 Jul - 23:31:23 10° W 23:38:48 29° SW 23:46:14 10° SSE visible
26 Jul - 14:57:11 10° SSE 15:00:43 13° SE 15:04:13 10° ESE daylight
26 Jul - 16:54:53 10° SSW 17:03:09 35° SSE 17:11:13 10° E daylight
26 Jul - 18:57:33 10° WSW 19:06:38 57° S 19:15:31 10° E daylight
26 Jul - 21:01:34 10° W 21:10:29 54° SSW 21:19:17 10° ESE daylight
26 Jul - 23:06:08 10° W 23:13:45 30° SW 23:21:21 10° SSE visible
27 Jul - 14:33:15 10° SE 14:35:43 11° SE 14:38:10 10° ESE daylight
27 Jul - 16:29:54 10° SSW 16:38:03 34° SE 16:46:01 10° E daylight
27 Jul - 18:32:25 10° WSW 18:41:30 56° SSE 18:50:22 10° E daylight
27 Jul - 20:36:23 10° W 20:45:21 55° SSW 20:54:10 10° ESE daylight
27 Jul - 22:40:54 10° W 22:48:41 32° SW 22:56:27 10° SSE visible
28 Jul - 16:04:56 10° SSW 16:12:59 32° SE 16:20:48 10° E daylight
28 Jul - 18:07:16 10° WSW 18:16:21 55° SSE 18:25:13 10° E daylight
28 Jul - 20:11:13 10° W 20:20:13 56° S 20:29:04 10° ESE daylight
28 Jul - 22:15:40 10° W 22:23:37 34° SW 22:31:32 10° SSE visible
